Weather History for Manning, SC

Change the Weather History Date:

Sunday, September 1, 2013

  Actual Average (KCKI) Record (KCKI)
Temperature  
Mean Temperature 80 °F -  
Max Temperature 91 °F 87 °F 95 °F (2012)
Min Temperature 68 °F 65 °F 60 °F (2011)
Cooling Degree Days 14    
Growing Degree Days 30 (Base 50)    
Moisture  
Dew Point 62 °F    
Average Humidity 62    
Maximum Humidity 94    
Minimum Humidity 20    
Precipitation  
Precipitation 0.00 in - - ()
Sea Level Pressure  
Sea Level Pressure 29.91 in    
Wind  
Wind Speed 4 mph (SSW)    
Max Wind Speed 10 mph    
Max Gust Speed -    
Visibility 9 miles    
Events Thunderstorm    
Averages and records for this station are not official NWS values.
T = Trace of Precipitation, MM = Missing Value Source: NWS Daily Summary

Daily Weather History Graph

Daily Weather History Graph

Search for Another Location

Airport:

Trip Planner

Search our weather history database for the weather conditions in past years. The results will help you decide how hot, cold, wet, or windy it might be!

Date:

Astronomy

Sep. 01, 2013 Rise Set
Actual Time 6:54 AM EDT 7:45 PM EDT
Civil Twilight 6:29 AM EDT 8:11 PM EDT
Nautical Twilight 5:59 AM EDT 8:41 PM EDT
Astronomical Twilight 5:28 AM EDT 9:11 PM EDT
Moon 3:22 AM EDT (9/1) 5:16 PM EDT (9/1)
Length of Visible Light 13h 41m
Length of Day
12h 50m
Waning Crescent, 14% of the Moon is Illuminated
Sep 1
Waning Crescent
Sep 5
New
Sep 12
First Quarter
Sep 19
Full
Sep 26
Last Quarter

Hourly Weather History & Observations

Time (EDT) Temp. Heat Index Dew Point Humidity Pressure Visibility Wind Dir Wind Speed Gust Speed Precip Events Conditions
12:15 AM 73.4 °F - 68.0 °F 83% 29.93 in 10.0 mi SSW 3.5 mph - N/A   Clear
12:35 AM 71.6 °F - 64.4 °F 78% 29.93 in 10.0 mi South 3.5 mph - N/A   Clear
12:55 AM 71.6 °F - 66.2 °F 83% 29.92 in 10.0 mi SSW 4.6 mph - N/A   Clear
1:15 AM 71.6 °F - 66.2 °F 83% 29.93 in 10.0 mi Calm Calm - N/A   Clear
1:35 AM 69.8 °F - 64.4 °F 83% 29.93 in 7.0 mi Calm Calm - N/A   Clear
1:55 AM 71.6 °F - 68.0 °F 88% 29.93 in 10.0 mi SSW 3.5 mph - N/A   Clear
2:15 AM 71.6 °F - 64.4 °F 78% 29.92 in 10.0 mi SSW 3.5 mph - N/A   Clear
2:35 AM 71.6 °F - 66.2 °F 83% 29.92 in 10.0 mi SSW 3.5 mph - N/A   Scattered Clouds
2:55 AM 71.6 °F - 66.2 °F 83% 29.92 in 10.0 mi SSW 3.5 mph - N/A   Mostly Cloudy
3:15 AM 71.6 °F - 66.2 °F 83% 29.92 in 10.0 mi Calm Calm - N/A   Scattered Clouds
3:35 AM 69.8 °F - 66.2 °F 88% 29.92 in 10.0 mi SSW 3.5 mph - N/A   Clear
3:55 AM 69.8 °F - 64.4 °F 83% 29.91 in 10.0 mi Calm Calm - N/A   Scattered Clouds
4:15 AM 69.8 °F - 64.4 °F 83% 29.91 in 10.0 mi SSW 3.5 mph - N/A   Clear
4:35 AM 69.8 °F - 64.4 °F 83% 29.90 in 10.0 mi Calm Calm - N/A   Clear
4:55 AM 69.8 °F - 64.4 °F 83% 29.91 in 7.0 mi SSW 3.5 mph - N/A   Clear
5:15 AM 69.8 °F - 64.4 °F 83% 29.91 in 7.0 mi Calm Calm - N/A   Scattered Clouds
5:35 AM 69.8 °F - 64.4 °F 83% 29.91 in 7.0 mi Calm Calm - N/A   Scattered Clouds
5:55 AM 69.8 °F - 64.4 °F 83% 29.92 in 5.0 mi SSW 4.6 mph - N/A   Clear
6:15 AM 69.8 °F - 62.6 °F 78% 29.92 in 5.0 mi SW 5.8 mph - N/A   Clear
6:35 AM 69.8 °F - 62.6 °F 78% 29.93 in 5.0 mi SSW 4.6 mph - N/A   Clear
6:55 AM 69.8 °F - 62.6 °F 78% 29.93 in 7.0 mi SW 3.5 mph - N/A   Clear
7:15 AM 69.8 °F - 62.6 °F 78% 29.93 in 4.0 mi SSW 3.5 mph - N/A   Clear
7:35 AM 68.0 °F - 62.6 °F 83% 29.92 in 4.0 mi Calm Calm - N/A   Clear
7:55 AM 69.8 °F - 62.6 °F 78% 29.93 in 5.0 mi Calm Calm - N/A   Clear
8:15 AM 69.8 °F - 64.4 °F 83% 29.94 in 7.0 mi SSW 4.6 mph - N/A   Clear
8:35 AM 71.6 °F - 64.4 °F 78% 29.94 in 7.0 mi SSW 6.9 mph - N/A   Clear
8:55 AM 71.6 °F - 64.4 °F 78% 29.95 in 10.0 mi SSW 6.9 mph - N/A   Scattered Clouds
9:15 AM 73.4 °F - 66.2 °F 78% 29.95 in 10.0 mi SSW 8.1 mph - N/A   Scattered Clouds
9:35 AM 75.2 °F - 66.2 °F 73% 29.96 in 10.0 mi SSW 8.1 mph - N/A   Clear
9:55 AM 77.0 °F - 66.2 °F 69% 29.96 in 10.0 mi SW 5.8 mph - N/A   Clear
10:15 AM 77.0 °F - 66.2 °F 69% 29.95 in 10.0 mi SSW 5.8 mph - N/A   Clear
10:35 AM 78.8 °F - 66.2 °F 65% 29.96 in 10.0 mi SSW 5.8 mph - N/A   Clear
10:55 AM 78.8 °F - 68.0 °F 69% 29.96 in 10.0 mi SSW 6.9 mph - N/A   Clear
11:15 AM 78.8 °F - 68.0 °F 69% 29.95 in 10.0 mi South 5.8 mph - N/A   Clear
11:35 AM 80.6 °F 83.9 °F 69.8 °F 70% 29.95 in 10.0 mi SSW 5.8 mph - N/A   Clear
11:55 AM 80.6 °F 82.7 °F 66.2 °F 61% 29.95 in 10.0 mi SSW 4.6 mph - N/A   Clear
12:15 PM 82.4 °F 85.4 °F 68.0 °F 62% 29.95 in 10.0 mi South 6.9 mph - N/A   Scattered Clouds
12:35 PM 82.4 °F 84.6 °F 66.2 °F 58% 29.94 in 10.0 mi South 5.8 mph - N/A   Scattered Clouds
12:55 PM 84.2 °F 85.0 °F 62.6 °F 48% 29.93 in 10.0 mi SSW 4.6 mph - N/A   Scattered Clouds
1:15 PM 84.2 °F 83.5 °F 57.2 °F 40% 29.92 in 10.0 mi SSW 5.8 mph - N/A   Clear
1:35 PM 87.8 °F 90.4 °F 66.2 °F 49% 29.92 in 10.0 mi South 4.6 mph - N/A   Clear
1:55 PM 87.8 °F 89.4 °F 64.4 °F 46% 29.91 in 10.0 mi South 8.1 mph - N/A   Scattered Clouds
2:15 PM 89.6 °F - 42.8 °F 20% 29.90 in 10.0 mi SSW 9.2 mph - N/A   Clear
2:35 PM 89.6 °F - 46.4 °F 22% 29.89 in 10.0 mi South 5.8 mph - N/A   Scattered Clouds
2:55 PM 89.6 °F - 46.4 °F 22% 29.89 in 10.0 mi South 6.9 mph - N/A   Clear
3:15 PM 89.6 °F - 44.6 °F 21% 29.88 in 10.0 mi South 4.6 mph - N/A   Clear
3:35 PM 89.6 °F - 44.6 °F 21% 29.87 in 10.0 mi SSW 8.1 mph - N/A   Clear
3:55 PM 91.4 °F - 46.4 °F 21% 29.86 in 10.0 mi SSW 6.9 mph - N/A   Clear
4:15 PM 91.4 °F - 48.2 °F 23% 29.86 in 10.0 mi South 3.5 mph - N/A   Clear
4:35 PM 91.4 °F - 48.2 °F 23% 29.85 in 10.0 mi South 6.9 mph - N/A   Clear
4:55 PM 91.4 °F - 48.2 °F 23% 29.85 in 10.0 mi South 4.6 mph - N/A   Clear
5:15 PM 91.4 °F - 48.2 °F 23% 29.84 in 10.0 mi SSW 5.8 mph - N/A   Clear
5:35 PM 91.4 °F - 48.2 °F 23% 29.84 in 10.0 mi South 4.6 mph - N/A   Clear
5:55 PM 89.6 °F - 48.2 °F 24% 29.83 in 10.0 mi South 3.5 mph - N/A   Clear
6:15 PM 89.6 °F - 46.4 °F 22% 29.83 in 10.0 mi South 4.6 mph - N/A   Clear
6:35 PM 89.6 °F - 48.2 °F 24% 29.83 in 10.0 mi South 3.5 mph - N/A   Clear
6:55 PM 87.8 °F - 50.0 °F 27% 29.84 in 10.0 mi SSW 3.5 mph - N/A   Scattered Clouds
7:15 PM 87.8 °F - 48.2 °F 25% 29.85 in 10.0 mi South 4.6 mph - N/A   Scattered Clouds
7:35 PM 86.0 °F - 46.4 °F 25% 29.85 in 10.0 mi South 3.5 mph - N/A   Clear
7:55 PM 86.0 °F - 44.6 °F 23% 29.85 in 10.0 mi South 3.5 mph - N/A   Clear
8:15 PM 84.2 °F - 51.8 °F 33% 29.87 in 10.0 mi South 5.8 mph - N/A   Clear
8:35 PM 84.2 °F 84.4 °F 60.8 °F 45% 29.87 in 10.0 mi South 8.1 mph - N/A   Clear
8:55 PM 84.2 °F 96.1 °F 78.8 °F 84% 29.88 in 10.0 mi South 4.6 mph - N/A   Clear
9:15 PM 82.4 °F 92.4 °F 78.8 °F 89% 29.89 in 10.0 mi South 3.5 mph - N/A   Clear
9:35 PM 82.4 °F 90.9 °F 77.0 °F 84% 29.90 in 10.0 mi South 8.1 mph - N/A   Clear
9:55 PM 82.4 °F 89.5 °F 75.2 °F 79% 29.91 in 10.0 mi SSW 6.9 mph - N/A   Clear
10:15 PM 80.6 °F 88.1 °F 78.8 °F 94% 29.91 in 10.0 mi SSW 10.4 mph - N/A   Clear
10:35 PM 80.6 °F 86.2 °F 75.2 °F 84% 29.91 in 10.0 mi SSW 9.2 mph - N/A   Clear
10:55 PM 80.6 °F 84.6 °F 71.6 °F 74% 29.91 in 10.0 mi SSW 9.2 mph - N/A   Clear
11:15 PM 80.6 °F 84.6 °F 71.6 °F 74% 29.91 in 10.0 mi SSW 5.8 mph - N/A Thunderstorm Clear
11:35 PM 80.6 °F 84.6 °F 71.6 °F 74% 29.91 in 10.0 mi South 6.9 mph - N/A   Clear
11:55 PM 78.8 °F - 73.4 °F 83% 29.91 in 10.0 mi South 4.6 mph - N/A   Scattered Clouds